World > North America > United States > Iowa > Last Chance  

Last Chance, IA Hourly Weather Updates

Feedback E-mail the Weather

Quick Clicks

Last Chance, IA Weather Maps

°F °C°F °C
Last Chance Weather Map
UTC Time: 5/20/2024, 13:00
Your Time:

Last Chance, IA Regional Weather

Expires:202405201300;;538968
ASUS43 KDMX 201206
RWRIA 

WEATHER ROUNDUP FOR IOWA
NATIONAL WEATHER SERVICE DES MOINES IA
700 AM CDT MON MAY 20 2024

NOTE: "FAIR" INDICATES FEW OR NO CLOUDS BELOW 12,000 FEET WITH NO
SIGNIFICANT WEATHER AND/OR OBSTRUCTIONS TO VISIBILITY.

* - THESE STATIONS ARE NOT NWS STATIONS...THUS NOT UNDER NWS
QUALITY CONTROL.  THEY ALSO DO NOT REPORT WEATHER SUCH 
AS PRECIPITATION OR FOG.  


IAZ047>049-059>061-072>074-084-201300-
   CENTRAL IOWA
  
CITY           SKY/WX    TMP DP  RH WIND       PRES   REMARKS
AMES           CLOUDY    63  61  93 E9        29.77R TC  17           
6HR MIN TEMP:  63; 6HR MAX TEMP:  66; 6HR PCP:  0.48;                

ANKENY *       CLOUDY    63  63 100 MISG      29.79R TC  17           
BOONE *        CLOUDY    63  63 100 SW7G14    29.80R TC  17           
CHARITON *     LGT RAIN  63  63 100 NW9       29.81R TC  17           
DES MOINES     CLOUDY    64  62  93 SW8       29.81R TC  18           
6HR MIN TEMP:  64; 6HR MAX TEMP:  66; 6HR PCP:  0.55;                

GRINNELL*      HVY RAIN  63  63  99 N3        29.83R TC  17           
KNOXVILLE *    HVY RAIN  63  61  94 N16       29.78F TC  17           
MARSHALLTOWN   LGT RAIN  63  61  93 SE14      29.79R FOG     TC  17   
6HR MIN TEMP:  63; 6HR MAX TEMP:  64; 6HR PCP:  0.70;                

NEWTON *       PTSUNNY   63  63 100 E8        29.80R FOG     TC  17   
PELLA *        HVY RAIN  62  62  98 N9        29.79S FOG     TC  17   
PERRY *        PTSUNNY   64  61  90 S12       29.81R TC  18           
$$
 

SKY/WX - Weather  TMP - Temperature  DP - Dew Point  RH - Humidity
WIND - Wind Direction/Speed PRES - Barometric Pressure VSB - Visibility
WCI - Wind Chill Index E13G22 Wind - East Wind 13 mph/Gusts of 22 mph

Trending Headlines

Trending Entertainment Headlines

Last Chance Radar Loop

Use the map search tool if you want to place a location marker on the radar map...

Last Chance Quick Facts

National Two Day Weather Forecast


E-mail the Last Chance Weather Forecast

Voice your opinion or tell us about page issues...